TAPIOLES Weather Reports


Display with metric or nautical units.
time (UTC)temp
F
wind
direction
speed
MPH
gust
MPH
rain 1hr
in
rain 24hr
in
rain mn
in
humidity
%
barometer
mb
20260504081506 68 244 0.0 4.0 0.00 0.00 0.00 70 1014.4
20260504044505 53 295 2.0 4.0 0.00 0.00 0.00 99 1015.3
20260504043005 53 314 2.0 4.0 0.00 0.00 0.00 99 1015.5
20260504041505 53 291 1.0 2.0 0.00 0.00 0.00 99 1015.4
20260504034505 53 345 0.0 2.0 0.00 0.00 0.00 99 1015.7
20260504033006 52 287 1.0 4.0 0.00 0.00 0.00 99 1015.7
20260504031505 53 344 2.0 4.0 0.00 0.00 0.00 99 1015.7
20260504030005 52 294 1.0 2.0 0.00 0.00 0.00 99 1016.0
20260504020005 54 320 1.0 2.0 0.00 0.00 0.00 99 1016.1
20260504014506 54 301 2.0 4.0 0.00 0.00 0.00 99 1016.2
20260504011505 54 325 1.0 4.0 0.00 0.00 0.00 99 1016.2
20260504010005 54 295 2.0 4.0 0.00 0.00 0.00 99 1016.4
20260504004505 54 281 1.0 2.0 0.00 0.00 0.00 99 1016.6
20260504003005 55 331 1.0 4.0 0.00 0.00 0.00 99 1016.6
20260504001505 55 293 0.0 4.0 0.00 0.00 0.00 99 1016.9
20260504000005 55 340 1.0 6.0 0.00 0.00 0.00 99 1016.8
20260503234505 56 326 2.0 2.0 0.00 0.00 0.00 99 1017.0
20260503233005 56 270 0.0 2.0 0.00 0.00 0.00 99 1017.4
20260503231506 56 0 0.0 0.0 0.00 0.00 0.00 99 1017.4
20260503230006 56 273 0.0 2.0 0.00 0.00 0.00 99 1017.6
20260503224504 56 318 0.0 2.0 0.00 0.00 0.00 98 1017.9
20260503223005 56 310 0.0 2.0 0.00 0.00 0.00 98 1017.8
20260503221505 56 10 2.0 4.0 0.00 0.00 0.00 97 1018.1
20260503220007 56 68 2.0 2.0 0.00 0.00 0.00 97 1017.9
20260503214506 57 164 0.0 2.0 0.00 0.00 0.00 96 1018.1
20260503213005 57 133 2.0 4.0 0.00 0.00 0.00 95 1018.0
20260503211505 57 115 2.0 4.0 0.00 0.00 0.00 98 1018.3
20260503210006 57 90 0.0 2.0 0.00 0.00 0.00 97 1018.1
20260503204505 57 298 0.0 2.0 0.00 0.00 0.00 96 1018.3
20260503203005 57 4 1.0 2.0 0.00 0.00 0.00 96 1018.3
20260503201504 57 94 1.0 2.0 0.00 0.00 0.00 95 1018.0
20260503200006 57 90 1.0 2.0 0.00 0.00 0.00 94 1018.0
20260503194505 57 173 0.0 2.0 0.00 0.00 0.00 93 1017.9
20260503193005 57 95 1.0 2.0 0.00 0.00 0.00 93 1017.6
20260503191504 58 78 2.0 4.0 0.00 0.00 0.00 91 1017.5
20260503190005 58 97 2.0 4.0 0.00 0.00 0.00 94 1017.6
20260503184504 58 100 2.0 4.0 0.00 0.00 0.00 94 1017.7
20260503183005 58 94 3.0 4.0 0.00 0.00 0.00 93 1017.4
20260503174504 59 91 7.0 9.0 0.00 0.00 0.00 87 1017.3
20260503173005 60 125 3.0 8.0 0.00 0.00 0.00 88 1017.2
20260503171505 61 138 8.0 11.0 0.00 0.00 0.00 83 1017.2